DW9349 Santa Fe TX US current weather conditions

sailwx.info

Wind from 329 at 3 knots gusting 9

Air temperature 23.9° C
Dewpoint 14.6° C

Last reported at 2019-Dec-06 19:05 UTC.
Time now 2019-Dec-06 20:13 UTC

Location: N 29°22' W 095°08'.
View on Google Maps.

See reports from other nearby stations

  
Tides and Currents Weather Stations Pressure Air Temp Water Temp Dewpoint Dewpoint Depression Visibility Wind Speed Wind Dir Waves Ship Positions
date/time (UTC)wind fromknots sea level pressurealtimeterstation pressurevisibilityair tempwater tempwave heightnotes
2019-Dec-06 19:05 329 3 gusting 9 23.9
2019-Dec-06 19:00 320 4 gusting 9 23.9
2019-Dec-06 18:55 327 3 gusting 10 23.9
2019-Dec-06 18:50 329 3 gusting 10 23.9
2019-Dec-06 18:45 319 3 gusting 11 23.9
2019-Dec-06 18:40 325 3 gusting 11 23.9
2019-Dec-06 18:35 325 2 gusting 9 23.9
2019-Dec-06 18:30 317 3 gusting 6 24.4
2019-Dec-06 18:25 330 3 gusting 10 23.9
2019-Dec-06 18:20 331 3 gusting 10 23.9
2019-Dec-06 18:15 328 3 gusting 10 23.9
2019-Dec-06 18:10 331 3 gusting 8 23.9
2019-Dec-06 18:05 326 4 gusting 7 23.9
2019-Dec-06 18:00 327 4 gusting 9 23.9
2019-Dec-06 17:55 329 5 gusting 9 23.9
2019-Dec-06 17:50 326 4 gusting 12 23.9
2019-Dec-06 17:45 342 4 gusting 12 23.9
2019-Dec-06 17:40 341 3 gusting 11 23.9
2019-Dec-06 17:35 308 2 gusting 8 23.9
2019-Dec-06 17:30 307 2 gusting 8 23.9
2019-Dec-06 17:25 317 2 gusting 6 23.9
2019-Dec-06 17:20 313 2 gusting 6 23.9
2019-Dec-06 17:15 319 2 gusting 6 23.3
2019-Dec-06 17:10 307 2 gusting 7 23.3
2019-Dec-06 17:05 311 2 gusting 7 23.3
2019-Dec-06 17:00 324 2 gusting 6 22.8
2019-Dec-06 16:55 301 2 gusting 6 22.8
2019-Dec-06 16:50 305 2 gusting 6 22.8
2019-Dec-06 16:45 308 2 gusting 6 22.2
2019-Dec-06 16:40 312 2 gusting 6 22.2
2019-Dec-06 16:35 332 2 gusting 6 22.2
2019-Dec-06 16:30 328 2 gusting 7 21.7
2019-Dec-06 16:25 316 2 gusting 7 21.7
2019-Dec-06 16:20 304 2 gusting 6 21.1
2019-Dec-06 16:15 314 2 gusting 7 20.0
2019-Dec-06 16:10 324 1 gusting 7 19.4
2019-Dec-06 16:05 312 1 gusting 6 19.4
2019-Dec-06 16:00 298 1 gusting 6 19.4
2019-Dec-06 15:55 309 1 gusting 6 19.4
2019-Dec-06 15:50 309 1 gusting 6 19.4
2019-Dec-06 15:45 303 1 gusting 6 18.9
2019-Dec-06 15:40 300 1 gusting 6 19.4
2019-Dec-06 15:35 292 1 gusting 5 19.4
2019-Dec-06 15:30 289 1 gusting 5 18.9
2019-Dec-06 15:25 290 1 gusting 6 18.9
2019-Dec-06 15:20 288 1 gusting 6 18.9
2019-Dec-06 15:15 295 1 gusting 7 18.9
2019-Dec-06 15:10 302 1 gusting 7 18.9
2019-Dec-06 15:05 292 1 gusting 4 18.9
2019-Dec-06 15:00 280 1 gusting 7 18.9
2019-Dec-06 14:55 279 1 gusting 7 18.9
2019-Dec-06 14:50 282 0 gusting 5 18.9
2019-Dec-06 14:45 18.9
2019-Dec-06 14:40 16.7
2019-Dec-06 14:35 16.7
2019-Dec-06 14:30 16.7
2019-Dec-06 14:25 16.7
2019-Dec-06 14:20 16.7
2019-Dec-06 14:15 16.7
2019-Dec-06 14:10 16.7
2019-Dec-06 14:05 16.7
2019-Dec-06 14:00 16.7
2019-Dec-06 13:55 16.7
2019-Dec-06 13:50 16.7
2019-Dec-06 13:45 16.7
2019-Dec-06 13:40 16.7
2019-Dec-06 13:35 16.7
2019-Dec-06 13:30 16.7
2019-Dec-06 13:25 16.7
2019-Dec-06 13:20 16.7
2019-Dec-06 13:15 16.7
2019-Dec-06 13:10 16.7
2019-Dec-06 13:05 16.7
2019-Dec-06 13:00 16.7
2019-Dec-06 12:55 16.7
2019-Dec-06 12:50 16.7
2019-Dec-06 12:45 16.7
2019-Dec-06 12:40 16.7
2019-Dec-06 12:35 16.7
2019-Dec-06 12:30 16.1
2019-Dec-06 12:25 16.1
2019-Dec-06 12:20 16.1
2019-Dec-06 12:15 16.1
2019-Dec-06 12:10 16.1
2019-Dec-06 12:05 16.1
2019-Dec-06 12:00 16.1
2019-Dec-06 11:55 16.1
2019-Dec-06 11:50 16.1
2019-Dec-06 11:45 16.1
2019-Dec-06 11:40 16.1
2019-Dec-06 11:35 16.1
2019-Dec-06 11:30 16.1
2019-Dec-06 11:25 16.1
2019-Dec-06 11:20 16.1
2019-Dec-06 11:15 16.1
2019-Dec-06 11:10 16.1
2019-Dec-06 11:05 16.1
2019-Dec-06 11:00 16.1
2019-Dec-06 10:55 16.1
2019-Dec-06 10:50 16.1
2019-Dec-06 10:45 16.1
2019-Dec-06 10:40 16.1
2019-Dec-06 10:35 16.1
2019-Dec-06 10:30 16.1
2019-Dec-06 10:25 16.1
2019-Dec-06 10:20 16.1
2019-Dec-06 10:15 16.1
2019-Dec-06 10:10 16.1
2019-Dec-06 10:05 16.1
2019-Dec-06 10:00 16.1
2019-Dec-06 09:55 16.1
2019-Dec-06 09:50 16.1
2019-Dec-06 09:45 16.1
2019-Dec-06 09:40 16.1
2019-Dec-06 09:35 16.1
2019-Dec-06 09:30 16.1
2019-Dec-06 09:25 16.1
2019-Dec-06 09:20 16.1
2019-Dec-06 09:15 16.1
2019-Dec-06 09:10 16.1
2019-Dec-06 09:05 16.1
2019-Dec-06 09:00 16.1
2019-Dec-06 08:55 16.1
2019-Dec-06 08:50 16.1
2019-Dec-06 08:45 16.1
2019-Dec-06 08:40 16.1
2019-Dec-06 08:35 16.1
2019-Dec-06 08:30 16.1
2019-Dec-06 08:25 16.1
2019-Dec-06 08:20 16.1
2019-Dec-06 08:15 16.1
2019-Dec-06 08:10 16.1
2019-Dec-06 08:05 16.1
2019-Dec-06 08:00 16.1
2019-Dec-06 07:55 16.1
2019-Dec-06 07:50 16.1
2019-Dec-06 07:45 16.1
2019-Dec-06 07:40 16.1
2019-Dec-06 07:35 16.1
2019-Dec-06 07:30 16.1
2019-Dec-06 07:25 16.1
2019-Dec-06 07:20 16.1
2019-Dec-06 07:15 16.1
2019-Dec-06 07:10 16.1
2019-Dec-06 07:05 16.1
2019-Dec-06 07:00 16.1
2019-Dec-06 06:55 16.1
2019-Dec-06 06:50 16.1
2019-Dec-06 06:45 16.1
2019-Dec-06 06:40 16.1
2019-Dec-06 06:35 16.1
2019-Dec-06 06:30 16.1
2019-Dec-06 06:25 16.1
2019-Dec-06 06:20 16.1
2019-Dec-06 06:15 16.1
2019-Dec-06 06:10 16.1
2019-Dec-06 06:05 16.1
2019-Dec-06 06:00 16.1
2019-Dec-06 05:55 16.1
2019-Dec-06 05:50 16.1
2019-Dec-06 05:45 16.1
2019-Dec-06 05:40 16.1
2019-Dec-06 05:35 16.1
2019-Dec-06 05:30 16.1
2019-Dec-06 05:25 16.1
2019-Dec-06 05:20 16.1
2019-Dec-06 05:15 16.1
2019-Dec-06 05:10 16.7
2019-Dec-06 05:05 16.1
2019-Dec-06 05:00 16.1
2019-Dec-06 04:55 16.1
2019-Dec-06 04:50 16.1
2019-Dec-06 04:45 16.1
2019-Dec-06 04:40 16.1
2019-Dec-06 04:35 16.1
2019-Dec-06 04:30 16.7
2019-Dec-06 04:25 16.7
2019-Dec-06 04:20 16.7
2019-Dec-06 04:15 16.7
2019-Dec-06 04:10 16.7
2019-Dec-06 04:05 16.7
2019-Dec-06 04:00 17.2
2019-Dec-06 03:55 17.2
2019-Dec-06 03:50 17.2
2019-Dec-06 03:45 17.2
2019-Dec-06 03:40 17.2
2019-Dec-06 03:35 17.2
2019-Dec-06 03:30 17.2
2019-Dec-06 03:25 17.2
2019-Dec-06 03:20 17.2
2019-Dec-06 03:15 17.2
2019-Dec-06 03:10 17.2
2019-Dec-06 03:05 17.2
2019-Dec-06 03:00 17.2
2019-Dec-06 02:55 17.2
2019-Dec-06 02:50 17.2
2019-Dec-06 02:45 17.2
2019-Dec-06 02:40 17.2
2019-Dec-06 02:35 17.2
2019-Dec-06 02:30 17.2
2019-Dec-06 02:25 17.2
2019-Dec-06 02:20 17.8
2019-Dec-06 02:15 17.8
2019-Dec-06 02:10 17.8
2019-Dec-06 02:05 17.8
2019-Dec-06 02:00 18.3
2019-Dec-06 01:55 18.3
2019-Dec-06 01:50 18.3
2019-Dec-06 01:45 18.3
2019-Dec-06 01:40 18.3
2019-Dec-06 01:35 134 18.3
2019-Dec-06 01:30 138 18.3
2019-Dec-06 01:25 138 18.3
2019-Dec-06 01:20 18.3
2019-Dec-06 01:15 18.3
2019-Dec-06 01:10 132 18.3
2019-Dec-06 01:05 137 18.3
2019-Dec-06 01:00 143 18.3
2019-Dec-06 00:55 144 0 gusting 3 18.3
2019-Dec-06 00:50 143 0 gusting 3 18.3
2019-Dec-06 00:45 139 0 gusting 3 18.3
2019-Dec-06 00:40 139 0 gusting 4 18.3
2019-Dec-06 00:35 140 0 gusting 4 18.3
2019-Dec-06 00:30 139 0 gusting 3 18.3
2019-Dec-06 00:25 141 18.3
2019-Dec-06 00:20 145 18.3
2019-Dec-06 00:15 143 18.3
2019-Dec-06 00:10 18.3
2019-Dec-06 00:05 18.3
2019-Dec-06 00:00 18.3
2019-Dec-05 23:55 135 18.9
2019-Dec-05 23:50 139 18.9
2019-Dec-05 23:45 137 18.9
2019-Dec-05 23:40 135 18.9
2019-Dec-05 23:35 133 18.9
2019-Dec-05 23:30 137 18.9
2019-Dec-05 23:25 144 19.4
2019-Dec-05 23:20 150 19.4
2019-Dec-05 23:15 143 0 gusting 3 19.4
2019-Dec-05 23:10 140 0 gusting 3 20.0
2019-Dec-05 23:05 141 0 gusting 2 20.0
2019-Dec-05 23:00 141 0 gusting 3 20.0
2019-Dec-05 22:55 140 0 gusting 3 20.0
2019-Dec-05 22:50 143 0 gusting 3 20.0
2019-Dec-05 22:45 145 0 gusting 4 20.0
2019-Dec-05 22:40 145 0 gusting 4 20.6
2019-Dec-05 22:35 151 1 gusting 5 20.6
2019-Dec-05 22:30 156 1 gusting 6 20.6
2019-Dec-05 22:25 156 1 gusting 6 20.6
2019-Dec-05 22:20 148 1 gusting 6 20.6
2019-Dec-05 22:15 149 1 gusting 6 21.1
2019-Dec-05 22:10 163 2 gusting 10 21.1
2019-Dec-05 22:05 162 2 gusting 10 21.1
2019-Dec-05 22:00 159 2 gusting 8 21.1
2019-Dec-05 21:55 161 2 gusting 8 21.1
2019-Dec-05 21:50 161 2 gusting 9 21.7
2019-Dec-05 21:45 160 2 gusting 9 21.1
2019-Dec-05 21:40 159 2 gusting 7 21.1
2019-Dec-05 21:35 165 2 gusting 7 21.1
2019-Dec-05 21:30 173 2 gusting 7 21.1
2019-Dec-05 21:25 170 2 gusting 6 21.1
2019-Dec-05 21:20 156 2 gusting 7 21.7
2019-Dec-05 21:15 147 2 gusting 7 21.7
2019-Dec-05 21:10 156 2 gusting 7 21.7
2019-Dec-05 21:05 164 1 gusting 7 21.7
2019-Dec-05 21:00 163 1 gusting 6 21.7
2019-Dec-05 20:55 166 2 gusting 6 21.7
2019-Dec-05 20:50 167 2 gusting 9 21.7
2019-Dec-05 20:45 171 2 gusting 9 21.7
2019-Dec-05 20:40 170 2 gusting 8 21.7
2019-Dec-05 20:35 167 2 gusting 8 22.2
2019-Dec-05 20:30 182 3 gusting 10 22.2
2019-Dec-05 20:25 185 3 gusting 10 22.2
2019-Dec-05 20:20 184 3 gusting 8 22.2
2019-Dec-05 20:15 196 3 gusting 9 22.2
2019-Dec-05 20:10 205 3 gusting 10 22.8
2019-Dec-05 20:05 198 3 gusting 10 22.8
2019-Dec-05 20:00 178 3 gusting 8 22.8
2019-Dec-05 19:55 181 3 gusting 9 23.3
2019-Dec-05 19:50 184 4 gusting 9 23.3
2019-Dec-05 19:45 191 5 gusting 11 23.3
2019-Dec-05 19:40 208 4 gusting 12 23.9
2019-Dec-05 19:35 212 3 gusting 12 23.9
2019-Dec-05 19:30 189 3 gusting 8 23.9
2019-Dec-05 19:25 194 4 gusting 7 23.9
2019-Dec-05 19:20 206 4 gusting 11 23.3
2019-Dec-05 19:15 195 4 gusting 11 23.3
2019-Dec-05 19:10 189 3 gusting 11 23.3
2019-Dec-05 19:05 170 2 gusting 11 23.3
2019-Dec-05 19:00 156 2 gusting 9 23.3
2019-Dec-05 18:55 181 2 gusting 7 23.3
2019-Dec-05 18:50 191 2 gusting 9 23.3
2019-Dec-05 18:45 180 3 gusting 9 23.3
2019-Dec-05 18:40 162 3 gusting 7 23.3
2019-Dec-05 18:35 160 2 gusting 8 23.9
2019-Dec-05 18:30 172 2 gusting 8 23.9
2019-Dec-05 18:25 155 2 gusting 7 23.3
2019-Dec-05 18:20 144 2 gusting 7 23.3
2019-Dec-05 18:15 151 2 gusting 6 23.3
2019-Dec-05 18:10 162 2 gusting 6 23.3
2019-Dec-05 18:05 157 2 gusting 6 23.3
2019-Dec-05 18:00 146 2 gusting 7 23.3
2019-Dec-05 17:55 166 2 gusting 7 23.3
2019-Dec-05 17:50 181 3 gusting 7 23.3
2019-Dec-05 17:45 176 3 gusting 7 23.3
2019-Dec-05 17:40 183 3 gusting 8 23.3
2019-Dec-05 17:35 185 3 gusting 8 23.3
2019-Dec-05 17:30 200 3 gusting 11 22.8
2019-Dec-05 17:25 187 3 gusting 11 22.8
2019-Dec-05 17:20 158 2 gusting 8 22.8
2019-Dec-05 17:15 156 1 gusting 7 22.8
2019-Dec-05 17:10 170 2 gusting 6 22.8
2019-Dec-05 17:05 173 2 gusting 6 22.8
2019-Dec-05 17:00 148 2 gusting 6 22.2
2019-Dec-05 16:55 140 2 gusting 7 22.2
2019-Dec-05 16:50 146 2 gusting 7 22.2
2019-Dec-05 16:45 141 2 gusting 6 22.2
2019-Dec-05 16:40 142 2 gusting 6 22.2
2019-Dec-05 16:35 141 2 gusting 6 21.7
2019-Dec-05 16:30 132 2 gusting 7 21.7
2019-Dec-05 16:25 129 2 gusting 7 21.7
2019-Dec-05 16:20 137 2 gusting 6 21.1
2019-Dec-05 16:15 142 2 gusting 6 21.1
2019-Dec-05 16:10 141 1 gusting 6 21.1
2019-Dec-05 16:05 128 1 gusting 6 21.1
2019-Dec-05 16:00 125 1 gusting 4 20.0
2019-Dec-05 15:55 126 1 gusting 5 20.0
2019-Dec-05 15:50 123 1 gusting 5 20.0
2019-Dec-05 15:45 125 1 gusting 5 19.4
2019-Dec-05 15:40 132 1 gusting 6 19.4
2019-Dec-05 15:35 133 1 gusting 6 18.9
2019-Dec-05 15:30 130 1 gusting 6 18.9
2019-Dec-05 15:25 132 1 gusting 5 18.3
2019-Dec-05 15:20 134 0 gusting 5 17.2
2019-Dec-05 15:15 130 16.7
2019-Dec-05 15:10 16.1
2019-Dec-05 15:05 127 16.1
2019-Dec-05 15:00 120 15.6
2019-Dec-05 14:55 118 0 gusting 2 15.6
2019-Dec-05 14:50 123 0 gusting 2 15.6
2019-Dec-05 14:45 128 0 gusting 3 15.0
2019-Dec-05 14:40 131 0 gusting 3 15.0
2019-Dec-05 14:35 131 0 gusting 3 15.0
2019-Dec-05 14:30 123 14.4
2019-Dec-05 14:25 119 14.4
2019-Dec-05 14:20 13.9
2019-Dec-05 14:15 13.9
2019-Dec-05 14:10 13.3
2019-Dec-05 14:05 12.8
2019-Dec-05 14:00 12.2
2019-Dec-05 13:55 12.2
2019-Dec-05 13:50 12.2
2019-Dec-05 13:45 11.7
2019-Dec-05 13:40 11.7
2019-Dec-05 13:35 11.1
2019-Dec-05 13:30 11.1
2019-Dec-05 13:25 11.1
2019-Dec-05 13:20 11.1
2019-Dec-05 13:15 10.6
2019-Dec-05 13:10 10.0
2019-Dec-05 13:05 10.0
2019-Dec-05 13:00 9.4
2019-Dec-05 12:55 7.8
2019-Dec-05 12:50 7.8
2019-Dec-05 12:45 7.8
2019-Dec-05 12:40 7.8
2019-Dec-05 12:35 7.8
2019-Dec-05 12:30 7.8
2019-Dec-05 12:25 7.8
2019-Dec-05 12:20 7.8
2019-Dec-05 12:15 7.8
2019-Dec-05 12:10 7.8
2019-Dec-05 12:05 7.8
2019-Dec-05 12:00 7.8
2019-Dec-05 11:55 7.8
2019-Dec-05 11:50 7.8
2019-Dec-05 11:45 7.8
2019-Dec-05 11:40 7.8
2019-Dec-05 11:35 7.8
2019-Dec-05 11:30 7.8
2019-Dec-05 11:25 7.8
2019-Dec-05 11:20 7.8
2019-Dec-05 11:15 7.8
2019-Dec-05 11:10 7.8
2019-Dec-05 11:05 7.8
2019-Dec-05 11:00 7.8
2019-Dec-05 10:55 7.8
2019-Dec-05 10:50 7.8
2019-Dec-05 10:45 7.8
2019-Dec-05 10:40 7.8
2019-Dec-05 10:35 7.8
2019-Dec-05 10:30 7.8
2019-Dec-05 10:25 7.8
2019-Dec-05 10:20 7.8
2019-Dec-05 10:15 7.8
2019-Dec-05 10:10 7.8
2019-Dec-05 10:05 7.8
2019-Dec-05 10:00 7.8
2019-Dec-05 09:55 7.8
2019-Dec-05 09:50 7.8
2019-Dec-05 09:45 7.8
2019-Dec-05 09:40 7.8
2019-Dec-05 09:35 7.8
2019-Dec-05 09:30 7.8
2019-Dec-05 09:25 7.8
2019-Dec-05 09:20 7.8
2019-Dec-05 09:15 7.8
2019-Dec-05 09:10 7.8
2019-Dec-05 09:05 7.8
2019-Dec-05 09:00 7.8
2019-Dec-05 08:55 7.8
2019-Dec-05 08:50 7.8
2019-Dec-05 08:45 7.8
2019-Dec-05 08:40 8.3
2019-Dec-05 08:35 8.3
2019-Dec-05 08:30 8.3
2019-Dec-05 08:25 8.3
2019-Dec-05 08:20 8.3
2019-Dec-05 08:15 8.3
2019-Dec-05 08:10 8.3
2019-Dec-05 08:05 8.3
2019-Dec-05 08:00 8.3
2019-Dec-05 07:55 8.3
2019-Dec-05 07:50 8.3
2019-Dec-05 07:45 8.3
2019-Dec-05 07:40 8.3
2019-Dec-05 07:35 8.3
2019-Dec-05 07:30 8.3
2019-Dec-05 07:25 8.3
2019-Dec-05 07:20 8.3
2019-Dec-05 07:15 7.8
2019-Dec-05 07:10 8.3
2019-Dec-05 07:05 8.3
2019-Dec-05 07:00 8.3
2019-Dec-05 06:55 8.3
2019-Dec-05 06:50 8.3
2019-Dec-05 06:45 8.3
2019-Dec-05 06:40 8.3
2019-Dec-05 06:35 8.3
2019-Dec-05 06:30 8.3
2019-Dec-05 06:25 8.3
2019-Dec-05 06:20 8.3
2019-Dec-05 06:15 8.3
2019-Dec-05 06:10 8.3
2019-Dec-05 06:05 8.3
2019-Dec-05 06:00 8.3
2019-Dec-05 05:55 8.9
2019-Dec-05 05:50 8.3
2019-Dec-05 05:45 8.9
2019-Dec-05 05:40 8.9
2019-Dec-05 05:35 8.9
2019-Dec-05 05:30 8.9
2019-Dec-05 05:25 8.9
2019-Dec-05 05:20 8.9
2019-Dec-05 05:15 9.4
2019-Dec-05 05:10 9.4
2019-Dec-05 05:05 9.4
2019-Dec-05 05:00 9.4
2019-Dec-05 04:55 9.4
2019-Dec-05 04:50 9.4
2019-Dec-05 04:45 9.4
2019-Dec-05 04:40 9.4
2019-Dec-05 04:35 10.0
2019-Dec-05 04:30 10.0
2019-Dec-05 04:25 10.0
2019-Dec-05 04:20 10.0
2019-Dec-05 04:15 10.0
2019-Dec-05 04:10 10.0
2019-Dec-05 04:05 10.0
2019-Dec-05 04:00 10.0
2019-Dec-05 03:55 10.6
2019-Dec-05 03:50 10.6
2019-Dec-05 03:45 10.6
2019-Dec-05 03:40 10.6
2019-Dec-05 03:35 10.6
2019-Dec-05 03:30 10.6
2019-Dec-05 03:25 10.6
2019-Dec-05 03:20 10.6
2019-Dec-05 03:15 10.6
2019-Dec-05 03:10 10.6
2019-Dec-05 03:05 10.6
2019-Dec-05 03:00 10.6
2019-Dec-05 02:55 10.6
2019-Dec-05 02:50 10.6
2019-Dec-05 02:45 10.6
2019-Dec-05 02:40 10.6
2019-Dec-05 02:35 10.6
2019-Dec-05 02:30 10.6
2019-Dec-05 02:25 10.6
2019-Dec-05 02:20 10.6
2019-Dec-05 02:15 10.6
2019-Dec-05 02:10 10.6
2019-Dec-05 02:05 11.1
2019-Dec-05 02:00 10.6
2019-Dec-05 01:55 11.1
2019-Dec-05 01:50 11.1
2019-Dec-05 01:45 11.7
2019-Dec-05 01:40 11.7
2019-Dec-05 01:35 11.7
2019-Dec-05 01:30 11.7
2019-Dec-05 01:25 11.7
2019-Dec-05 01:20 11.7
2019-Dec-05 01:15 11.7
2019-Dec-05 01:10 11.7
2019-Dec-05 01:05 12.2
2019-Dec-05 01:00 12.8
2019-Dec-05 00:55 12.8
2019-Dec-05 00:50 13.3
2019-Dec-05 00:45 13.9
2019-Dec-05 00:40 13.9
2019-Dec-05 00:35 14.4
2019-Dec-05 00:30 14.4
2019-Dec-05 00:25 15.0
2019-Dec-05 00:20 14.4
2019-Dec-05 00:15 14.4
2019-Dec-05 00:10 14.4
2019-Dec-05 00:05 15.0
2019-Dec-05 00:00 15.6
2019-Dec-04 23:55 16.1
2019-Dec-04 23:50 16.1
2019-Dec-04 23:45 16.7
2019-Dec-04 23:40 16.7
2019-Dec-04 23:35 17.2
2019-Dec-04 23:30 17.8
2019-Dec-04 23:25 18.3
2019-Dec-04 23:20 18.3
2019-Dec-04 23:15 18.9
2019-Dec-04 23:10 19.4
2019-Dec-04 23:05 19.4
2019-Dec-04 23:00 19.4
2019-Dec-04 22:55 19.4
2019-Dec-04 22:50 060 20.0
2019-Dec-04 22:45 064 0 gusting 1 20.0
2019-Dec-04 22:40 075 0 gusting 2 20.0
2019-Dec-04 22:35 076 0 gusting 3 20.6
2019-Dec-04 22:30 078 0 gusting 3 20.6
2019-Dec-04 22:25 083 0 gusting 3 20.6
2019-Dec-04 22:20 089 0 gusting 3 20.6
2019-Dec-04 22:15 088 0 gusting 2 21.1
2019-Dec-04 22:10 081 0 gusting 3 21.1
2019-Dec-04 22:05 077 0 gusting 3 21.1
2019-Dec-04 22:00 078 0 gusting 3 21.1
2019-Dec-04 21:55 078 0 gusting 2 21.7
2019-Dec-04 21:50 077 1 gusting 3 21.7
2019-Dec-04 21:45 072 2 gusting 6 21.7
2019-Dec-04 21:40 069 2 gusting 6 22.2
2019-Dec-04 21:35 074 2 gusting 5 22.2
2019-Dec-04 21:30 078 2 gusting 6 22.2
2019-Dec-04 21:25 073 2 gusting 6 22.2
2019-Dec-04 21:20 049 2 gusting 5 22.2
2019-Dec-04 21:15 018 2 gusting 6 22.2
2019-Dec-04 21:10 030 1 gusting 6 22.2
2019-Dec-04 21:05 068 1 gusting 6 22.2
2019-Dec-04 21:00 070 2 gusting 5 22.8
2019-Dec-04 20:55 047 2 gusting 6 22.8
2019-Dec-04 20:50 014 2 gusting 6 23.3
2019-Dec-04 20:45 349 2 gusting 6 23.3
2019-Dec-04 20:40 352 3 gusting 6 23.3
2019-Dec-04 20:35 359 2 gusting 7 23.3
2019-Dec-04 20:30 007 2 gusting 8 23.3
2019-Dec-04 20:25 011 0 gusting 8 23.3
2019-Dec-04 20:20 017 0 gusting 5 23.3
2019-Dec-04 20:15 022 1 gusting 5 23.3
2019-Dec-04 20:10 025 1 gusting 7 22.8
2019-Dec-04 20:05 031 1 gusting 7 22.8
2019-Dec-04 20:00 003 1 gusting 4 22.8